Temp
-9 -9 -8 -8 -8 -8 -8 -8 -8 -8 -7 -7 -7 -7 -7 -7 -7 -7 -7 -8 -8 -8 -8 -8 -8 -7 -7 -7 -7 -7 -7 -7 -6 -7 -7 -7 -7 -7 -7 -7 -7 -7 -7
-9 -9 -9 -8 -8 -8 -8 -8 -8 -8 -8 -8 -7 -7 -7 -7 -7 -7 -7 -7 -7 -7 -7 -7 -7 -7 -7 -7 -7 -7 -7 -7 -7 -7 -7 -7 -7 -7 -7 -7 -7 -7 -7
-9 -9 -9 -9 -9 -8 -8 -8 -8 -8 -8 -8 -8 -7 -7 -7 -7 -7 -7 -7 -7 -7 -7 -7 -7 -7 -7 -7 -7 -7 -7 -7 -7 -7 -7 -7 -7 -7 -7 -7 -7 -7 -8
-8 -9 -9 -9 -8 -8 -8 -8 -8 -8 -8 -8 -8 -7 -7 -7 -7 -7 -7 -7 -7 -7 -7 -7 -7 -7 -7 -7 -7 -7 -7 -7 -7 -7 -7 -8 -8 -8 -8 -8 -8 -8 -8
-8 -8 -9 -8 -8 -9 -8 -8 -8 -8 -8 -8 -8 -8 -7 -7 -7 -7 -7 -7 -7 -7 -7 -7 -7 -7 -7 -7 -7 -7 -7 -7 -7 -8 -8 -8 -8 -8 -8 -8 -8 -8 -8
-8 -8 -8 -8 -8 -8 -8 -9 -8 -8 -8 -8 -8 -8 -8 -7 -7 -7 -7 -7 -7 -7 -7 -7 -7 -7 -7 -7 -7 -7 -7 -7 -8 -8 -8 -8 -8 -8 -8 -8 -8 -8 -8
-9 -8 -8 -8 -8 -8 -9 -9 -9 -9 -9 -8 -8 -8 -8 -8 -7 -7 -7 -7 -7 -7 -7 -7 -7 -7 -7 -7 -7 -7 -7 -8 -8 -8 -8 -8 -8 -8 -8 -8 -8 -8 -8
-9 -9 -9 -9 -8 -8 -9 -9 -9 -9 -9 -9 -8 -8 -8 -8 -8 -7 -7 -7 -7 -7 -7 -7 -7 -7 -7 -7 -7 -7 -8 -8 -8 -8 -8 -8 -8 -8 -8 -8 -8 -8 -8
-10 -9 -9 -9 -9 -8 -8 -9 -9 -9 -9 -9 -9 -9 -8 -8 -8 -8 -7 -7 -7 -7 -8 -7 -7 -7 -7 -7 -7 -8 -8 -8 -8 -8 -8 -8 -8 -8 -8 -8 -8 -8 -8
-10 -10 -10 -10 -9 -9 -8 -8 -9 -9 -9 -9 -9 -9 -9 -8 -8 -8 -7 -7 -7 -7 -8 -8 -7 -7 -7 -7 -8 -8 -8 -8 -8 -8 -8 -8 -8 -8 -8 -8 -8 -8 -8
-11 -11 -10 -10 -10 -10 -9 -9 -8 -9 -9 -10 -10 -9 -9 -8 -8 -8 -8 -8 -7 -8 -8 -8 -8 -7 -7 -8 -8 -8 -8 -9 -9 -8 -8 -8 -8 -8 -8 -8 -8 -8 -8
-10 -10 -10 -10 -10 -10 -10 -9 -9 -9 -9 -10 -10 -10 -9 -9 -9 -9 -8 -8 -8 -8 -8 -8 -8 -7 -8 -8 -9 -9 -9 -9 -9 -9 -8 -8 -8 -8 -8 -8 -8 -8 -8
-11 -11 -11 -11 -10 -10 -10 -10 -10 -9 -9 -10 -10 -10 -10 -9 -9 -9 -9 -8 -8 -8 -8 -8 -8 -8 -8 -8 -9 -9 -9 -9 -9 -9 -9 -9 -8 -8 -9 -9 -8 -9 -9
-11 -11 -12 -12 -11 -11 -11 -10 -10 -10 -10 -10 -10 -11 -10 -10 -10 -9 -9 -9 -8 -8 -8 -8 -8 -8 -8 -8 -9 -9 -9 -9 -9 -9 -9 -9 -9 -9 -9 -9 -9 -9 -9
-12 -12 -12 -12 -12 -12 -11 -11 -11 -11 -10 -10 -11 -11 -11 -10 -10 -10 -10 -9 -9 -8 -8 -9 -8 -8 -8 -9 -9 -9 -9 -9 -9 -9 -9 -9 -9 -9 -9 -9 -10 -10 -10
-13 -13 -13 -13 -12 -12 -12 -12 -11 -11 -11 -10 -11 -12 -11 -10 -10 -10 -10 -10 -9 -9 -9 -9 -9 -8 -9 -9 -9 -9 -9 -9 -9 -9 -10 -10 -10 -10 -10 -10 -10 -10 -10
-13 -13 -13 -13 -13 -13 -12 -12 -12 -11 -11 -11 -11 -12 -12 -10 -10 -10 -10 -10 -10 -9 -9 -9 -9 -8 -8 -9 -9 -9 -9 -9 -9 -10 -10 -10 -10 -10 -10 -10 -10 -10 -10
-13 -13 -13 -13 -13 -13 -12 -13 -13 -13 -12 -12 -11 -12 -12 -10 -11 -10 -10 -10 -10 -10 -9 -9 -9 -9 -9 -9 -9 -10 -9 -9 -9 -10 -10 -10 -10 -10 -10 -10 -10 -10 -10
-13 -14 -13 -13 -13 -13 -14 -15 -15 -15 -14 -14 -13 -11 -13 -12 -11 -11 -11 -10 -10 -10 -10 -9 -9 -9 -9 -9 -10 -10 -10 -9 -10 -10 -10 -10 -10 -10 -10 -10 -10 -10 -10
-14 -14 -14 -15 -15 -16 -16 -17 -17 -17 -17 -16 -15 -12 -13 -12 -11 -11 -11 -11 -11 -10 -10 -10 -10 -10 -9 -10 -10 -10 -10 -10 -10 -10 -10 -10 -10 -10 -10 -10 -10 -10 -11
-15 -15 -16 -17 -18 -18 -18 -18 -18 -18 -18 -18 -17 -15 -13 -12 -12 -11 -12 -12 -11 -11 -10 -10 -10 -10 -10 -10 -10 -10 -10 -10 -10 -10 -10 -10 -10 -10 -10 -10 -11 -11 -11
-15 -16 -18 -18 -18 -18 -17 -18 -18 -18 -18 -18 -18 -17 -14 -12 -12 -12 -12 -12 -12 -12 -11 -10 -10 -10 -10 -10 -10 -10 -10 -10 -10 -10 -10 -10 -10 -10 -10 -11 -11 -11 -11
-15 -17 -18 -18 -17 -17 -17 -17 -19 -19 -18 -18 -18 -18 -17 -13 -13 -12 -12 -12 -12 -13 -11 -11 -11 -11 -10 -11 -11 -10 -10 -11 -11 -11 -11 -11 -11 -11 -11 -11 -11 -11 -11
-16 -17 -17 -17 -17 -17 -18 -17 -19 -19 -19 -19 -19 -18 -17 -15 -12 -12 -12 -12 -12 -13 -12 -11 -11 -11 -11 -11 -11 -11 -11 -11 -11 -11 -11 -11 -11 -11 -11 -11 -11 -11 -11
-17 -17 -16 -17 -17 -17 -17 -17 -19 -19 -18 -19 -19 -18 -18 -14 -13 -12 -12 -12 -12 -13 -13 -12 -11 -11 -11 -11 -11 -11 -11 -11 -11 -11 -11 -11 -11 -11 -11 -11 -12 -12 -12
-17 -17 -16 -17 -17 -17 -17 -18 -18 -18 -19 -18 -18 -17 -17 -16 -14 -13 -12 -12 -13 -13 -14 -14 -12 -11 -11 -11 -11 -11 -11 -11 -11 -11 -11 -11 -11 -11 -12 -12 -12 -12 -13
Height
5836 5837 5838 5839 5840 5842 5843 5845 5847 5848 5850 5852 5853 5854 5854 5856 5857 5859 5859 5860 5862 5864 5865 5867 5869 5871 5873 5875 5876 5877 5878 5879 5880 5880 5880 5881 5881 5881 5881 5881 5880 5881 5881
5832 5834 5835 5836 5838 5840 5841 5842 5844 5846 5848 5850 5852 5853 5854 5855 5856 5858 5859 5860 5861 5863 5865 5866 5869 5871 5872 5874 5875 5877 5878 5879 5880 5880 5881 5880 5881 5881 5881 5881 5881 5881 5881
5829 5830 5832 5833 5835 5836 5839 5840 5841 5843 5845 5847 5849 5851 5852 5854 5854 5856 5858 5859 5860 5862 5864 5866 5868 5870 5872 5874 5875 5876 5877 5878 5879 5880 5880 5881 5881 5881 5881 5881 5882 5882 5882
5824 5825 5827 5829 5830 5832 5834 5836 5838 5840 5841 5844 5846 5848 5850 5852 5853 5854 5856 5858 5859 5860 5862 5864 5866 5869 5871 5873 5874 5876 5877 5877 5878 5879 5880 5881 5881 5881 5881 5881 5881 5881 5881
5818 5820 5822 5824 5826 5828 5830 5832 5834 5836 5838 5840 5842 5845 5848 5849 5851 5853 5854 5856 5857 5859 5861 5862 5864 5867 5869 5872 5873 5875 5875 5877 5878 5879 5879 5879 5880 5881 5881 5881 5881 5881 5881
5812 5814 5816 5818 5820 5822 5825 5827 5829 5831 5833 5836 5838 5841 5844 5846 5848 5850 5852 5854 5856 5857 5859 5861 5863 5865 5868 5871 5872 5873 5874 5876 5876 5877 5878 5879 5879 5880 5880 5880 5880 5880 5880
5804 5807 5810 5812 5813 5816 5819 5822 5823 5826 5828 5830 5833 5836 5839 5842 5844 5847 5849 5852 5854 5855 5857 5859 5861 5863 5866 5869 5870 5871 5873 5874 5876 5877 5877 5877 5878 5878 5879 5880 5880 5879 5879
5799 5800 5803 5805 5807 5809 5811 5814 5817 5819 5823 5825 5828 5830 5833 5836 5840 5843 5846 5849 5851 5853 5854 5857 5859 5861 5864 5866 5868 5870 5871 5873 5874 5875 5876 5876 5877 5877 5878 5878 5878 5878 5878
5793 5792 5795 5798 5798 5800 5803 5805 5809 5812 5816 5819 5822 5825 5827 5831 5834 5838 5842 5845 5847 5850 5852 5854 5857 5859 5862 5864 5866 5868 5869 5870 5872 5873 5874 5874 5876 5876 5876 5877 5877 5877 5877
5785 5785 5786 5789 5791 5792 5794 5797 5799 5803 5808 5812 5815 5818 5821 5824 5828 5834 5837 5840 5843 5846 5848 5850 5853 5856 5859 5862 5864 5864 5866 5868 5869 5870 5871 5873 5874 5875 5875 5875 5875 5875 5875
5780 5779 5778 5779 5783 5783 5785 5787 5790 5793 5797 5801 5806 5811 5815 5818 5823 5827 5831 5835 5838 5842 5844 5847 5849 5853 5856 5859 5860 5861 5864 5865 5867 5868 5869 5871 5872 5872 5873 5873 5874 5874 5874
5770 5771 5772 5771 5773 5776 5777 5778 5780 5784 5787 5791 5796 5802 5807 5811 5816 5819 5824 5829 5832 5836 5840 5842 5845 5849 5854 5855 5857 5858 5860 5862 5864 5865 5867 5868 5869 5870 5871 5871 5872 5872 5872
5762 5762 5761 5762 5762 5766 5768 5768 5770 5773 5777 5780 5785 5791 5797 5802 5806 5812 5817 5822 5826 5830 5834 5838 5841 5845 5849 5851 5854 5856 5857 5859 5860 5862 5864 5865 5866 5867 5868 5869 5870 5870 5870
5752 5751 5751 5750 5750 5752 5756 5757 5759 5761 5765 5769 5773 5779 5785 5792 5798 5803 5809 5814 5819 5823 5827 5831 5835 5839 5844 5846 5850 5852 5853 5855 5856 5859 5860 5862 5862 5863 5864 5865 5866 5867 5868
5738 5738 5738 5737 5737 5737 5741 5744 5746 5748 5751 5756 5761 5766 5772 5779 5786 5793 5799 5805 5811 5816 5820 5825 5829 5834 5838 5841 5845 5848 5849 5850 5853 5855 5857 5859 5860 5861 5861 5862 5863 5864 5865
5726 5726 5724 5724 5723 5722 5723 5726 5730 5733 5735 5740 5746 5752 5760 5767 5775 5782 5788 5795 5802 5808 5812 5817 5823 5827 5832 5836 5839 5842 5843 5845 5848 5850 5852 5854 5856 5857 5858 5859 5860 5860 5860
5716 5713 5711 5709 5709 5708 5706 5707 5711 5714 5718 5723 5730 5739 5749 5748 5765 5770 5777 5784 5792 5799 5804 5809 5815 5820 5826 5831 5833 5836 5837 5841 5843 5846 5848 5849 5851 5853 5854 5854 5855 5856 5856
5703 5701 5697 5695 5692 5691 5688 5687 5690 5694 5698 5703 5711 5721 5732 5743 5751 5759 5767 5773 5781 5788 5794 5800 5807 5812 5819 5824 5828 5830 5831 5836 5838 5840 5843 5844 5845 5847 5848 5849 5850 5850 5851
5693 5688 5684 5678 5674 5671 5667 5667 5668 5673 5677 5682 5691 5702 5715 5726 5737 5741 5753 5763 5769 5777 5785 5791 5798 5803 5810 5815 5820 5824 5825 5829 5832 5834 5836 5839 5840 5841 5843 5844 5844 5845 5845
5680 5674 5667 5660 5654 5649 5647 5646 5647 5651 5656 5661 5671 5683 5700 5711 5723 5723 5738 5751 5760 5766 5774 5781 5788 5794 5800 5806 5810 5815 5817 5821 5825 5827 5829 5832 5834 5835 5836 5837 5838 5839 5839
5667 5658 5649 5640 5635 5633 5631 5629 5631 5637 5642 5646 5653 5663 5679 5692 5707 5719 5725 5737 5749 5756 5764 5771 5778 5784 5790 5797 5801 5806 5810 5813 5818 5820 5823 5825 5827 5828 5829 5830 5831 5832 5832
5654 5643 5633 5628 5626 5623 5621 5619 5618 5622 5630 5636 5640 5648 5664 5676 5689 5706 5717 5725 5736 5745 5753 5761 5768 5775 5782 5787 5792 5797 5802 5807 5810 5813 5816 5817 5819 5821 5822 5823 5823 5824 5824
5643 5633 5625 5622 5619 5616 5612 5609 5607 5611 5617 5624 5629 5636 5649 5662 5677 5688 5700 5709 5724 5734 5743 5751 5759 5766 5773 5778 5783 5789 5794 5799 5802 5804 5807 5808 5810 5812 5813 5814 5815 5815 5815
5633 5625 5621 5618 5614 5610 5604 5599 5594 5599 5606 5613 5619 5625 5641 5651 5667 5676 5689 5700 5710 5722 5733 5742 5748 5756 5762 5769 5774 5780 5784 5789 5792 5795 5797 5799 5801 5803 5805 5805 5805 5805 5805
5627 5621 5616 5612 5607 5600 5594 5592 5588 5591 5596 5604 5608 5615 5627 5641 5656 5671 5677 5687 5692 5709 5720 5730 5739 5746 5752 5759 5764 5770 5774 5779 5782 5786 5788 5790 5792 5792 5794 5795 5795 5795 5795
5621 5616 5611 5606 5601 5597 5591 5590 5590 5590 5590 5591 5598 5610 5623 5636 5649 5655 5664 5669 5679 5695 5707 5720 5728 5735 5743 5749 5755 5760 5764 5768 5771 5774 5777 5779 5781 5783 5784 5785 5785 5783 5783
Wind_Speed
17 17 18 16 17 17 19 19 19 18 17 17 15 13 11 9 9 9 12 13 13 13 15 16 15 16 14 13 11 9 9 9 7 7 7 7 7 7 7 7 7 7 7
18 19 19 20 20 21 20 23 22 21 20 20 19 17 15 13 11 12 12 13 14 13 15 17 17 16 15 13 11 9 8 8 6 6 5 5 5 4 4 4 5 6 6
21 21 21 24 24 23 24 24 25 24 23 22 23 22 18 16 14 14 15 15 16 16 16 17 17 17 16 14 12 10 8 8 7 5 4 3 2 2 3 4 4 5 5
25 25 26 24 27 27 27 27 27 27 25 24 25 25 23 20 18 16 17 18 18 19 19 19 19 18 17 14 12 9 8 8 7 5 3 1 2 2 2 3 4 3 4
28 29 29 29 28 29 30 30 29 30 29 27 27 27 27 24 21 20 19 19 20 20 20 21 21 20 18 15 12 10 10 9 7 5 3 2 2 2 1 1 1 2 2
30 30 29 31 32 33 31 32 33 33 32 31 30 29 29 29 26 24 22 20 22 22 21 21 22 21 18 15 12 11 11 10 9 5 4 4 3 3 2 1 2 3 4
32 32 31 30 32 35 36 35 36 36 36 35 33 32 32 32 31 27 26 23 23 23 22 22 22 21 18 15 14 12 12 11 9 8 8 7 5 5 5 4 4 4 3
32 34 32 32 32 35 37 39 39 39 39 38 37 35 34 34 34 31 29 27 24 24 24 23 22 21 18 16 15 14 13 12 12 11 10 8 7 7 6 5 4 3 3
31 34 34 33 36 36 37 40 43 42 41 42 41 39 38 35 37 36 32 31 29 27 26 25 23 22 20 19 18 16 16 15 13 12 11 10 9 8 7 6 5 4 4
33 35 36 35 36 38 40 41 43 46 46 44 46 44 42 40 39 37 38 34 33 31 29 28 26 24 22 21 20 20 18 16 15 13 12 12 11 9 7 7 6 5 3
33 35 39 39 38 40 41 43 43 47 50 49 48 49 46 47 41 39 41 38 36 34 33 31 30 27 24 23 23 23 20 18 17 16 15 14 12 9 9 8 7 4 4
36 36 37 41 42 41 43 45 46 46 50 53 52 50 51 50 46 42 42 43 40 38 36 35 33 30 27 27 26 23 21 19 20 19 17 15 14 12 10 9 7 6 4
39 40 41 43 45 44 46 47 49 49 48 54 57 55 54 52 53 46 44 45 44 41 39 38 36 33 30 30 27 24 22 22 23 21 19 17 15 13 12 10 10 10 8
41 43 44 46 48 49 49 51 52 53 52 51 58 60 58 56 55 51 47 47 48 45 42 41 39 37 34 32 28 26 25 26 25 22 21 19 18 16 15 14 13 10 9
44 45 45 47 50 52 52 54 56 56 57 55 56 63 63 60 59 55 52 50 50 48 46 44 43 41 38 35 31 29 29 29 26 25 23 21 20 19 18 16 13 11 10
43 44 46 47 50 53 53 53 56 58 60 62 56 64 66 64 62 61 57 53 52 52 50 47 46 44 41 38 34 33 33 32 28 27 25 24 22 22 20 17 15 15 14
40 42 45 48 50 52 54 56 60 61 63 64 64 64 68 62 66 67 62 58 55 55 53 51 49 48 45 41 38 36 36 33 31 29 28 26 24 24 23 22 20 19 19
39 42 45 48 50 55 60 63 59 60 66 67 70 67 72 74 65 71 67 64 59 58 56 54 52 50 48 45 42 39 40 37 34 32 30 29 27 27 27 27 25 25 25
38 41 45 52 57 60 61 63 65 65 68 70 72 76 70 74 70 70 69 68 63 60 59 57 55 53 51 48 45 42 43 40 38 36 35 34 32 31 31 30 30 30 29
39 44 49 56 62 60 59 59 59 58 60 64 70 79 80 76 75 60 75 76 67 63 63 60 57 56 55 52 49 47 46 44 42 40 39 38 37 36 35 35 35 34 34
41 48 54 51 41 42 43 44 46 50 51 53 66 79 82 79 68 65 73 78 71 65 64 63 59 58 58 55 53 50 49 47 44 42 41 41 41 41 41 40 39 39 39
43 49 43 35 29 35 36 38 43 51 50 52 62 82 86 78 76 92 82 81 73 68 68 66 63 60 58 57 55 53 50 49 46 44 43 44 44 44 43 43 43 44 44
43 41 27 24 26 24 30 36 41 52 51 50 56 75 72 87 65 70 67 75 73 70 70 67 64 61 59 58 57 55 52 49 49 48 47 46 46 46 45 45 45 46 47
42 32 22 23 27 34 36 31 35 42 48 49 45 65 70 92 68 60 77 70 76 76 71 68 66 63 61 59 58 56 55 52 51 50 50 49 49 48 48 48 49 49 48
37 28 26 30 33 22 23 23 32 35 35 43 39 60 64 96 68 69 64 72 80 75 71 69 67 64 62 60 59 57 56 55 54 53 53 52 51 52 51 51 50 50 49
36 29 24 25 28 26 21 18 19 18 22 23 33 56 68 80 66 63 68 58 78 78 78 69 66 65 62 61 61 59 58 57 57 57 56 56 54 54 52 51 51 51 52
Wind_Direction
249 248 242 235 228 227 225 225 231 234 237 233 224 221 217 214 210 200 196 195 202 200 192 185 182 175 174 170 164 155 156 146 128 117 111 102 90 83 76 74 71 67 66
253 249 247 242 237 233 229 227 228 235 237 237 231 226 224 216 213 212 202 187 183 184 182 182 178 179 179 178 174 167 162 153 138 130 113 98 83 74 74 75 77 74 73
258 253 246 244 241 238 235 232 230 229 235 235 234 230 226 223 217 215 214 201 193 190 188 184 185 186 186 184 183 177 167 164 159 155 135 106 87 96 108 102 95 85 80
262 254 249 244 240 239 236 236 235 232 230 234 234 234 230 226 224 220 219 211 204 199 197 195 194 193 189 189 188 185 171 174 172 167 159 134 81 97 117 103 84 69 50
259 257 253 251 246 241 240 237 236 235 234 232 234 234 233 229 226 225 223 217 210 206 203 200 198 195 194 196 193 187 187 182 177 186 177 172 140 155 124 69 29 19 350
260 258 256 255 253 248 243 241 237 237 235 234 232 235 234 232 229 226 226 220 215 208 206 204 199 198 198 199 198 194 189 186 193 197 190 198 182 196 210 214 255 270 285
259 257 256 253 254 251 248 244 241 237 237 235 234 233 234 234 231 228 226 222 219 208 206 205 203 202 202 197 197 199 193 197 213 211 208 203 197 202 220 234 249 266 285
258 257 255 257 253 253 250 246 243 240 237 238 234 233 234 236 232 230 227 223 219 212 206 209 209 206 202 198 200 197 203 212 221 216 212 203 199 206 208 222 225 240 258
260 260 259 256 255 250 249 247 244 242 240 237 239 234 231 234 236 230 228 225 221 216 211 211 213 209 202 202 201 199 209 218 221 221 214 201 200 197 196 211 225 242 258
263 261 261 258 255 253 250 245 244 241 240 239 237 237 234 232 236 234 228 226 223 218 215 213 213 213 206 202 202 205 212 218 216 213 208 201 200 202 207 214 223 239 266
256 260 264 261 256 256 253 251 243 242 239 237 237 236 234 234 232 234 231 226 223 222 218 216 214 212 207 204 206 211 210 210 208 207 204 201 203 200 203 208 228 241 270
270 265 257 260 260 255 255 252 251 242 241 237 235 235 235 234 233 230 231 229 224 220 221 218 216 213 208 209 209 212 210 207 205 204 206 200 195 199 209 213 227 238 252
265 265 267 265 263 257 254 253 250 248 240 238 234 233 233 232 235 231 230 230 227 221 221 221 217 213 208 209 210 213 212 208 206 207 203 203 206 205 213 221 237 244 257
270 270 270 269 266 262 256 252 252 249 246 238 235 232 230 230 233 231 230 229 228 223 220 221 218 214 209 210 210 213 212 210 208 208 208 209 212 219 223 223 229 242 257
277 274 271 268 266 264 258 252 250 249 246 244 235 231 230 228 229 231 229 229 228 225 222 221 220 217 211 211 208 213 214 215 210 210 213 219 222 224 225 229 233 248 258
275 273 270 267 266 264 262 257 251 249 245 241 236 230 228 228 226 228 229 227 226 224 223 221 220 219 215 212 210 214 216 217 215 216 219 224 225 227 229 230 244 250 259
275 275 273 272 268 265 266 265 256 250 244 240 237 228 225 225 227 227 226 226 225 223 222 222 221 220 217 214 213 215 220 219 218 221 221 224 226 228 230 235 248 252 263
283 281 281 278 276 273 272 268 259 256 247 240 234 224 224 223 228 227 226 225 224 222 222 221 221 220 220 217 215 217 223 221 221 223 226 227 227 230 235 240 247 253 261
286 287 285 284 279 274 267 261 261 259 252 247 233 227 217 220 221 220 225 226 222 221 222 221 221 220 219 220 219 219 225 224 224 225 227 230 230 234 239 244 250 256 263
297 294 287 282 277 270 265 264 256 246 240 241 228 223 213 217 218 224 226 225 221 220 221 222 222 221 220 220 220 221 225 228 227 228 230 234 237 239 243 247 252 258 264
303 298 294 288 277 270 261 257 251 234 236 238 226 219 214 217 214 215 216 220 221 219 221 221 221 222 223 221 222 223 225 229 231 232 235 238 242 244 247 251 257 263 267
308 308 303 291 286 271 269 261 245 233 235 233 228 219 213 211 212 219 221 221 219 220 220 220 221 222 223 223 223 225 228 231 233 236 238 240 244 248 251 254 257 263 267
313 314 305 297 301 295 281 272 250 237 234 228 229 225 219 212 220 225 221 216 219 219 221 219 221 222 223 225 226 227 229 233 237 238 239 243 246 250 253 257 261 264 268
317 317 303 304 295 292 284 265 254 238 236 223 230 227 214 213 204 207 211 216 219 218 219 219 220 221 223 224 227 228 230 232 237 240 244 246 248 251 254 257 260 263 267
319 320 300 293 301 295 274 251 247 240 225 223 230 227 219 209 211 201 201 205 212 213 217 217 220 222 223 225 227 229 232 234 237 240 243 247 250 253 256 258 261 265 268
317 323 299 303 309 303 274 248 241 208 210 219 217 219 218 214 204 199 196 198 208 212 213 217 220 223 224 226 229 230 232 235 238 241 243 246 249 252 256 259 263 264 267